Time,TemperatureF,DewpointF,PressureIn,WindDirection,WindDirectionDegrees,WindSpeedMPH,WindSpeedGustMPH,Humidity,HourlyPrecipIn,Conditions,Clouds,dailyrainin,SoftwareType,DateUTC
2013-04-13 00:01:00,41.0,18.0,23.39,West,270,0.0,0.0,39,0.00,,---,0.00,VWS V14.00,2013-04-13 07:01:00,
2013-04-13 00:07:00,40.5,17.5,23.39,West,270,0.0,0.0,39,0.00,,---,0.00,VWS V14.00,2013-04-13 07:07:00,
2013-04-13 00:12:00,39.9,17.0,23.39,West,270,0.0,0.0,39,0.00,,---,0.00,VWS V14.00,2013-04-13 07:12:00,
2013-04-13 00:17:00,39.4,16.5,23.39,West,270,0.0,0.0,39,0.00,,---,0.00,VWS V14.00,2013-04-13 07:17:00,
2013-04-13 00:23:00,38.8,16.0,23.39,West,270,0.0,0.0,39,0.00,,---,0.00,VWS V14.00,2013-04-13 07:23:00,
2013-04-13 00:28:00,38.5,15.7,23.39,West,270,0.0,0.0,39,0.00,,---,0.00,VWS V14.00,2013-04-13 07:28:00,
2013-04-13 00:33:00,37.9,15.2,23.39,West,270,0.0,0.0,39,0.00,,---,0.00,VWS V14.00,2013-04-13 07:33:00,
2013-04-13 00:38:00,37.6,14.9,23.39,West,270,0.0,0.0,39,0.00,,---,0.00,VWS V14.00,2013-04-13 07:38:00,
2013-04-13 00:44:00,37.2,15.1,23.39,West,270,0.0,0.0,40,0.00,,---,0.00,VWS V14.00,2013-04-13 07:44:00,
2013-04-13 00:49:00,36.9,14.8,23.39,West,270,0.0,0.0,40,0.00,,---,0.00,VWS V14.00,2013-04-13 07:49:00,
2013-04-13 00:54:00,36.5,14.5,23.39,West,270,0.0,0.0,40,0.00,,---,0.00,VWS V14.00,2013-04-13 07:54:00,
2013-04-13 00:59:00,36.3,14.3,23.36,West,270,0.0,0.0,40,0.00,,---,0.00,VWS V14.00,2013-04-13 07:59:00,
2013-04-13 01:04:00,36.0,14.0,23.36,West,270,0.0,0.0,40,0.00,,---,0.00,VWS V14.00,2013-04-13 08:04:00,
2013-04-13 01:10:00,35.6,13.7,23.36,West,270,0.0,0.0,40,0.00,,---,0.00,VWS V14.00,2013-04-13 08:10:00,
2013-04-13 01:15:00,35.4,13.5,23.39,West,270,0.0,0.0,40,0.00,,---,0.00,VWS V14.00,2013-04-13 08:15:00,
2013-04-13 01:21:00,35.1,13.2,23.39,West,270,0.0,0.0,40,0.00,,---,0.00,VWS V14.00,2013-04-13 08:21:00,
2013-04-13 01:27:00,34.7,12.9,23.39,West,270,0.0,0.0,40,0.00,,---,0.00,VWS V14.00,2013-04-13 08:27:00,
2013-04-13 01:32:00,34.3,12.5,23.39,West,270,0.0,0.0,40,0.00,,---,0.00,VWS V14.00,2013-04-13 08:32:00,
2013-04-13 01:37:00,34.0,12.2,23.39,West,270,0.0,0.0,40,0.00,,---,0.00,VWS V14.00,2013-04-13 08:37:00,
2013-04-13 01:42:00,33.8,12.1,23.39,West,270,0.0,0.0,40,0.00,,---,0.00,VWS V14.00,2013-04-13 08:42:00,
2013-04-13 01:48:00,33.6,12.4,23.39,West,270,0.0,0.0,41,0.00,,---,0.00,VWS V14.00,2013-04-13 08:48:00,
2013-04-13 01:53:00,33.3,12.1,23.39,West,270,0.0,0.0,41,0.00,,---,0.00,VWS V14.00,2013-04-13 08:53:00,
2013-04-13 01:58:00,33.1,12.0,23.39,West,270,0.0,0.0,41,0.00,,---,0.00,VWS V14.00,2013-04-13 08:58:00,
2013-04-13 02:03:00,32.9,11.8,23.39,West,270,0.0,0.0,41,0.00,,---,0.00,VWS V14.00,2013-04-13 09:03:00,
2013-04-13 02:09:00,32.7,11.6,23.39,West,270,0.0,0.0,41,0.00,,---,0.00,VWS V14.00,2013-04-13 09:09:00,
2013-04-13 02:14:00,32.5,11.5,23.39,West,270,0.0,0.0,41,0.00,,---,0.00,VWS V14.00,2013-04-13 09:14:00,
2013-04-13 02:19:00,32.4,11.3,23.39,West,270,0.0,0.0,41,0.00,,---,0.00,VWS V14.00,2013-04-13 09:19:00,
2013-04-13 02:24:00,32.2,11.1,23.39,West,270,0.0,0.0,41,0.00,,---,0.00,VWS V14.00,2013-04-13 09:24:00,
2013-04-13 02:30:00,31.8,10.8,23.36,West,270,0.0,0.0,41,0.00,,---,0.00,VWS V14.00,2013-04-13 09:30:00,
2013-04-13 02:35:00,31.6,10.6,23.36,West,270,0.0,0.0,41,0.00,,---,0.00,VWS V14.00,2013-04-13 09:35:00,
2013-04-13 02:40:00,31.3,10.3,23.36,West,270,0.0,0.0,41,0.00,,---,0.00,VWS V14.00,2013-04-13 09:40:00,
2013-04-13 02:45:00,31.1,10.2,23.36,West,270,0.0,0.0,41,0.00,,---,0.00,VWS V14.00,2013-04-13 09:45:00,
2013-04-13 02:51:00,30.9,10.0,23.36,West,270,0.0,0.0,41,0.00,,---,0.00,VWS V14.00,2013-04-13 09:51:00,
2013-04-13 02:57:00,30.7,9.8,23.36,West,270,0.0,0.0,41,0.00,,---,0.00,VWS V14.00,2013-04-13 09:57:00,
2013-04-13 03:02:00,30.7,9.8,23.36,West,270,0.0,0.0,41,0.00,,---,0.00,VWS V14.00,2013-04-13 10:02:00,
2013-04-13 03:07:00,30.6,9.7,23.36,West,270,0.0,0.0,41,0.00,,---,0.00,VWS V14.00,2013-04-13 10:07:00,
2013-04-13 03:12:00,30.4,9.5,23.36,West,270,0.0,0.0,41,0.00,,---,0.00,VWS V14.00,2013-04-13 10:12:00,
2013-04-13 03:17:00,30.2,9.4,23.36,West,270,0.0,0.0,41,0.00,,---,0.00,VWS V14.00,2013-04-13 10:17:00,
2013-04-13 03:23:00,30.0,9.2,23.36,West,270,0.0,0.0,41,0.00,,---,0.00,VWS V14.00,2013-04-13 10:23:00,
2013-04-13 03:28:00,30.0,9.2,23.33,West,270,0.0,0.0,41,0.00,,---,0.00,VWS V14.00,2013-04-13 10:28:00,
2013-04-13 03:33:00,29.8,9.0,23.33,West,270,0.0,0.0,41,0.00,,---,0.00,VWS V14.00,2013-04-13 10:33:00,
2013-04-13 03:38:00,29.7,8.9,23.33,West,270,0.0,0.0,41,0.00,,---,0.00,VWS V14.00,2013-04-13 10:38:00,
2013-04-13 03:43:00,29.5,8.7,23.36,West,270,0.0,0.0,41,0.00,,---,0.00,VWS V14.00,2013-04-13 10:43:00,
2013-04-13 03:48:00,29.3,8.5,23.36,West,270,0.0,0.0,41,0.00,,---,0.00,VWS V14.00,2013-04-13 10:48:00,
2013-04-13 03:54:00,29.1,8.4,23.36,West,270,0.0,0.0,41,0.00,,---,0.00,VWS V14.00,2013-04-13 10:54:00,
2013-04-13 03:59:00,28.9,8.2,23.36,West,270,0.0,0.0,41,0.00,,---,0.00,VWS V14.00,2013-04-13 10:59:00,
2013-04-13 04:04:00,28.8,8.0,23.36,West,270,0.0,0.0,41,0.00,,---,0.00,VWS V14.00,2013-04-13 11:04:00,
2013-04-13 04:10:00,28.6,7.9,23.36,West,270,0.0,0.0,41,0.00,,---,0.00,VWS V14.00,2013-04-13 11:10:00,
2013-04-13 04:15:00,28.6,7.9,23.36,West,270,0.0,0.0,41,0.00,,---,0.00,VWS V14.00,2013-04-13 11:15:00,
2013-04-13 04:20:00,28.6,7.9,23.36,West,270,0.0,0.0,41,0.00,,---,0.00,VWS V14.00,2013-04-13 11:20:00,
2013-04-13 04:26:00,28.4,8.2,23.36,West,270,0.0,0.0,42,0.00,,---,0.00,VWS V14.00,2013-04-13 11:26:00,
2013-04-13 04:31:00,28.2,8.1,23.36,West,270,0.0,0.0,42,0.00,,---,0.00,VWS V14.00,2013-04-13 11:31:00,
2013-04-13 04:37:00,28.2,8.1,23.36,West,270,0.0,0.0,42,0.00,,---,0.00,VWS V14.00,2013-04-13 11:37:00,
2013-04-13 04:42:00,28.0,7.9,23.36,West,270,0.0,0.0,42,0.00,,---,0.00,VWS V14.00,2013-04-13 11:42:00,
2013-04-13 04:47:00,28.0,7.9,23.36,West,270,0.0,0.0,42,0.00,,---,0.00,VWS V14.00,2013-04-13 11:47:00,
2013-04-13 04:52:00,27.9,7.8,23.36,West,270,0.0,0.0,42,0.00,,---,0.00,VWS V14.00,2013-04-13 11:52:00,
2013-04-13 04:57:00,27.9,7.8,23.36,West,270,0.0,0.0,42,0.00,,---,0.00,VWS V14.00,2013-04-13 11:57:00,
2013-04-13 05:02:00,27.7,7.6,23.36,West,270,0.0,0.0,42,0.00,,---,0.00,VWS V14.00,2013-04-13 12:02:00,
2013-04-13 05:08:00,27.7,7.6,23.36,West,270,0.0,0.0,42,0.00,,---,0.00,VWS V14.00,2013-04-13 12:08:00,
2013-04-13 05:13:00,27.5,7.4,23.36,West,270,0.0,0.0,42,0.00,,---,0.00,VWS V14.00,2013-04-13 12:13:00,
2013-04-13 05:18:00,27.5,7.4,23.36,West,270,0.0,0.0,42,0.00,,---,0.00,VWS V14.00,2013-04-13 12:18:00,
2013-04-13 05:23:00,27.3,7.3,23.36,West,270,0.0,0.0,42,0.00,,---,0.00,VWS V14.00,2013-04-13 12:23:00,
2013-04-13 05:29:00,27.1,7.1,23.36,West,270,0.0,0.0,42,0.00,,---,0.00,VWS V14.00,2013-04-13 12:29:00,
2013-04-13 05:34:00,27.0,6.9,23.36,West,270,0.0,0.0,42,0.00,,---,0.00,VWS V14.00,2013-04-13 12:34:00,
2013-04-13 05:39:00,27.0,6.9,23.36,West,270,0.0,0.0,42,0.00,,---,0.00,VWS V14.00,2013-04-13 12:39:00,
2013-04-13 05:44:00,27.0,6.9,23.36,West,270,0.0,0.0,42,0.00,,---,0.00,VWS V14.00,2013-04-13 12:44:00,
2013-04-13 05:49:00,27.0,6.9,23.36,West,270,0.0,0.0,42,0.00,,---,0.00,VWS V14.00,2013-04-13 12:49:00,
2013-04-13 05:54:00,27.0,6.9,23.36,West,270,0.0,0.0,42,0.00,,---,0.00,VWS V14.00,2013-04-13 12:54:00,
2013-04-13 06:00:00,27.0,6.9,23.36,West,270,0.0,0.0,42,0.00,,---,0.00,VWS V14.00,2013-04-13 13:00:00,
2013-04-13 06:05:00,26.8,6.8,23.36,West,270,0.0,0.0,42,0.00,,---,0.00,VWS V14.00,2013-04-13 13:05:00,
2013-04-13 06:10:00,27.0,6.9,23.36,West,270,0.0,0.0,42,0.00,,---,0.00,VWS V14.00,2013-04-13 13:10:00,
2013-04-13 06:16:00,27.0,6.9,23.36,West,270,0.0,0.0,42,0.00,,---,0.00,VWS V14.00,2013-04-13 13:16:00,
2013-04-13 06:21:00,27.0,6.9,23.36,West,270,0.0,0.0,42,0.00,,---,0.00,VWS V14.00,2013-04-13 13:21:00,
2013-04-13 06:26:00,27.0,6.9,23.36,West,270,0.0,0.0,42,0.00,,---,0.00,VWS V14.00,2013-04-13 13:26:00,
2013-04-13 06:31:00,27.3,7.3,23.36,West,270,0.0,0.0,42,0.00,,---,0.00,VWS V14.00,2013-04-13 13:31:00,
2013-04-13 06:36:00,27.5,7.4,23.36,West,270,0.0,0.0,42,0.00,,---,0.00,VWS V14.00,2013-04-13 13:36:00,
2013-04-13 06:42:00,27.9,7.8,23.36,West,270,0.0,0.0,42,0.00,,---,0.00,VWS V14.00,2013-04-13 13:42:00,
2013-04-13 06:47:00,28.0,7.9,23.36,West,270,0.0,0.0,42,0.00,,---,0.00,VWS V14.00,2013-04-13 13:47:00,
2013-04-13 06:52:00,28.6,7.9,23.36,West,270,0.0,0.0,41,0.00,,---,0.00,VWS V14.00,2013-04-13 13:52:00,
2013-04-13 06:57:00,28.9,8.2,23.36,West,270,0.0,0.0,41,0.00,,---,0.00,VWS V14.00,2013-04-13 13:57:00,
2013-04-13 07:03:00,29.5,8.7,23.36,West,270,0.0,0.0,41,0.00,,---,0.00,VWS V14.00,2013-04-13 14:03:00,
2013-04-13 07:08:00,30.0,9.2,23.36,West,270,0.0,0.0,41,0.00,,---,0.00,VWS V14.00,2013-04-13 14:08:00,
2013-04-13 07:13:00,30.7,9.8,23.36,West,270,0.0,0.0,41,0.00,,---,0.00,VWS V14.00,2013-04-13 14:13:00,
2013-04-13 07:18:00,31.5,10.5,23.36,West,270,0.0,0.0,41,0.00,,---,0.00,VWS V14.00,2013-04-13 14:18:00,
2013-04-13 07:24:00,32.5,11.5,23.36,West,270,0.0,0.0,41,0.00,,---,0.00,VWS V14.00,2013-04-13 14:24:00,
2013-04-13 07:29:00,33.6,12.4,23.36,West,270,0.0,0.0,41,0.00,,---,0.00,VWS V14.00,2013-04-13 14:29:00,
2013-04-13 07:34:00,34.9,13.0,23.36,West,270,0.0,0.0,40,0.00,,---,0.00,VWS V14.00,2013-04-13 14:34:00,
2013-04-13 07:39:00,36.0,14.0,23.36,West,270,0.0,0.0,40,0.00,,---,0.00,VWS V14.00,2013-04-13 14:39:00,
2013-04-13 07:44:00,37.2,15.1,23.36,West,270,0.0,0.0,40,0.00,,---,0.00,VWS V14.00,2013-04-13 14:44:00,
2013-04-13 07:50:00,38.8,16.6,23.36,West,272,0.0,3.1,40,0.00,,---,0.00,VWS V14.00,2013-04-13 14:50:00,
2013-04-13 07:55:00,40.6,17.6,23.36,SSW,192,0.0,0.0,39,0.00,,---,0.00,VWS V14.00,2013-04-13 14:55:00,
2013-04-13 08:00:00,42.3,19.1,23.36,WSW,247,2.7,5.4,39,0.00,,---,0.00,VWS V14.00,2013-04-13 15:00:00,
2013-04-13 08:05:00,43.5,19.6,23.36,West,265,4.0,4.0,38,0.00,,---,0.00,VWS V14.00,2013-04-13 15:05:00,
2013-04-13 08:11:00,45.3,21.2,23.36,WSW,258,3.1,4.0,38,0.00,,---,0.00,VWS V14.00,2013-04-13 15:11:00,
2013-04-13 08:16:00,46.6,21.7,23.36,WNW,285,3.1,8.3,37,0.00,,---,0.00,VWS V14.00,2013-04-13 15:16:00,
2013-04-13 08:22:00,48.2,23.2,23.36,WNW,284,3.6,5.8,37,0.00,,---,0.00,VWS V14.00,2013-04-13 15:22:00,
2013-04-13 08:27:00,49.1,24.0,23.36,SW,225,5.4,6.3,37,0.00,,---,0.00,VWS V14.00,2013-04-13 15:27:00,
2013-04-13 08:32:00,50.2,24.9,23.36,West,260,5.8,8.7,37,0.00,,---,0.00,VWS V14.00,2013-04-13 15:32:00,
2013-04-13 08:37:00,50.9,25.6,23.36,WNW,301,4.9,8.1,37,0.00,,---,0.00,VWS V14.00,2013-04-13 15:37:00,
2013-04-13 08:42:00,51.6,26.2,23.39,SW,233,5.4,10.5,37,0.00,,---,0.00,VWS V14.00,2013-04-13 15:42:00,
2013-04-13 08:47:00,52.3,26.2,23.39,WNW,294,5.4,5.8,36,0.00,,---,0.00,VWS V14.00,2013-04-13 15:47:00,
2013-04-13 08:52:00,53.1,26.8,23.39,SW,232,8.1,8.3,36,0.00,,---,0.00,VWS V14.00,2013-04-13 15:52:00,
2013-04-13 08:58:00,54.0,27.6,23.36,West,271,6.3,8.1,36,0.00,,---,0.00,VWS V14.00,2013-04-13 15:58:00,
2013-04-13 09:03:00,54.7,28.3,23.36,WSW,246,6.3,7.6,36,0.00,,---,0.00,VWS V14.00,2013-04-13 16:03:00,
2013-04-13 09:08:00,55.8,28.5,23.36,SSW,196,8.1,8.1,35,0.00,,---,0.00,VWS V14.00,2013-04-13 16:08:00,
2013-04-13 09:14:00,56.3,29.0,23.36,WSW,239,5.4,5.8,35,0.00,,---,0.00,VWS V14.00,2013-04-13 16:14:00,
2013-04-13 09:19:00,56.8,29.5,23.36,NW,311,3.1,5.8,35,0.00,,---,0.00,VWS V14.00,2013-04-13 16:19:00,
2013-04-13 09:24:00,57.6,30.1,23.36,WSW,251,7.6,8.7,35,0.00,,---,0.00,VWS V14.00,2013-04-13 16:24:00,
2013-04-13 09:29:00,57.6,30.1,23.36,WNW,298,5.4,15.4,35,0.00,,---,0.00,VWS V14.00,2013-04-13 16:29:00,
2013-04-13 09:34:00,57.4,30.0,23.36,NW,309,6.7,8.3,35,0.00,,---,0.00,VWS V14.00,2013-04-13 16:34:00,
2013-04-13 09:39:00,57.7,30.3,23.36,WSW,247,10.5,12.3,35,0.00,,---,0.00,VWS V14.00,2013-04-13 16:39:00,
2013-04-13 09:44:00,58.1,30.6,23.36,SSW,193,4.0,8.3,35,0.00,,---,0.00,VWS V14.00,2013-04-13 16:44:00,
2013-04-13 09:49:00,58.6,31.1,23.36,SW,229,7.2,7.2,35,0.00,,---,0.00,VWS V14.00,2013-04-13 16:49:00,
2013-04-13 09:55:00,59.2,31.6,23.36,SW,227,8.1,8.1,35,0.00,,---,0.00,VWS V14.00,2013-04-13 16:55:00,
2013-04-13 10:01:00,59.2,31.6,23.36,WSW,248,8.3,8.3,35,0.00,,---,0.00,VWS V14.00,2013-04-13 17:01:00,
2013-04-13 10:07:00,59.2,31.6,23.36,NW,310,8.7,11.0,35,0.00,,---,0.00,VWS V14.00,2013-04-13 17:07:00,
2013-04-13 10:13:00,59.4,31.7,23.36,WSW,249,6.3,8.1,35,0.00,,---,0.00,VWS V14.00,2013-04-13 17:13:00,
2013-04-13 10:19:00,59.9,32.2,23.36,WNW,285,8.3,8.3,35,0.00,,---,0.00,VWS V14.00,2013-04-13 17:19:00,
2013-04-13 10:24:00,60.4,32.7,23.36,WNW,303,3.6,9.6,35,0.00,,---,0.00,VWS V14.00,2013-04-13 17:24:00,
2013-04-13 10:29:00,61.3,32.8,23.36,West,276,10.5,10.5,34,0.00,,---,0.00,VWS V14.00,2013-04-13 17:29:00,
2013-04-13 10:34:00,61.9,33.2,23.36,SW,220,4.0,9.6,34,0.00,,---,0.00,VWS V14.00,2013-04-13 17:34:00,
2013-04-13 10:39:00,62.8,34.0,23.36,NW,304,8.1,8.1,34,0.00,,---,0.00,VWS V14.00,2013-04-13 17:39:00,
2013-04-13 10:45:00,63.1,34.3,23.36,SW,229,3.6,6.3,34,0.00,,---,0.00,VWS V14.00,2013-04-13 17:45:00,
2013-04-13 10:50:00,63.9,35.0,23.36,SW,225,4.0,8.3,34,0.00,,---,0.00,VWS V14.00,2013-04-13 17:50:00,
2013-04-13 10:56:00,64.2,35.3,23.36,SW,223,5.4,10.5,34,0.00,,---,0.00,VWS V14.00,2013-04-13 17:56:00,
2013-04-13 11:01:00,64.4,34.7,23.36,WNW,292,5.8,8.1,33,0.00,,---,0.00,VWS V14.00,2013-04-13 18:01:00,
2013-04-13 11:06:00,64.4,34.7,23.36,WSW,239,8.7,8.7,33,0.00,,---,0.00,VWS V14.00,2013-04-13 18:06:00,
2013-04-13 11:11:00,64.6,34.8,23.36,SW,235,10.1,10.1,33,0.00,,---,0.00,VWS V14.00,2013-04-13 18:11:00,
2013-04-13 11:17:00,65.1,35.3,23.36,SSW,195,8.7,8.7,33,0.00,,---,0.00,VWS V14.00,2013-04-13 18:17:00,
2013-04-13 11:22:00,65.5,35.6,23.36,West,268,10.1,10.1,33,0.00,,---,0.00,VWS V14.00,2013-04-13 18:22:00,
2013-04-13 11:27:00,65.8,36.0,23.36,SW,227,5.4,5.4,33,0.00,,---,0.00,VWS V14.00,2013-04-13 18:27:00,
2013-04-13 11:28:00,65.8,36.0,23.36,West,270,11.0,11.0,33,0.00,,---,0.00,VWS V14.00,2013-04-13 18:28:00,
2013-04-13 11:29:00,65.8,36.0,23.36,WNW,301,8.1,17.9,33,0.00,,---,0.00,VWS V14.00,2013-04-13 18:29:00,
2013-04-13 11:34:00,65.8,36.0,23.36,West,265,5.4,5.4,33,0.00,,---,0.00,VWS V14.00,2013-04-13 18:34:00,
2013-04-13 11:40:00,66.6,36.6,23.36,SW,224,7.6,8.3,33,0.00,,---,0.00,VWS V14.00,2013-04-13 18:40:00,
2013-04-13 11:45:00,66.9,36.9,23.36,WSW,246,6.3,6.3,33,0.00,,---,0.00,VWS V14.00,2013-04-13 18:45:00,
2013-04-13 11:50:00,67.3,37.2,23.36,WNW,284,3.1,5.4,33,0.00,,---,0.00,VWS V14.00,2013-04-13 18:50:00,
2013-04-13 11:55:00,67.5,37.4,23.36,WSW,242,5.8,6.3,33,0.00,,---,0.00,VWS V14.00,2013-04-13 18:55:00,
2013-04-13 12:00:00,67.1,37.1,23.33,WSW,247,4.9,5.4,33,0.00,,---,0.00,VWS V14.00,2013-04-13 19:00:00,
2013-04-13 12:05:00,67.3,37.2,23.33,SW,226,7.6,8.3,33,0.00,,---,0.00,VWS V14.00,2013-04-13 19:05:00,
2013-04-13 12:11:00,67.6,37.5,23.33,WSW,256,5.4,8.1,33,0.00,,---,0.00,VWS V14.00,2013-04-13 19:11:00,
2013-04-13 12:16:00,67.8,37.7,23.33,NW,321,10.5,10.5,33,0.00,,---,0.00,VWS V14.00,2013-04-13 19:16:00,
2013-04-13 12:21:00,68.2,38.0,23.33,WSW,247,10.1,14.5,33,0.00,,---,0.00,VWS V14.00,2013-04-13 19:21:00,
2013-04-13 12:26:00,68.0,37.8,23.33,WNW,291,10.5,10.5,33,0.00,,---,0.00,VWS V14.00,2013-04-13 19:26:00,
2013-04-13 12:31:00,67.8,37.7,23.33,South,186,5.4,8.7,33,0.00,,---,0.00,VWS V14.00,2013-04-13 19:31:00,
2013-04-13 12:36:00,68.4,38.2,23.33,SW,236,8.1,8.1,33,0.00,,---,0.00,VWS V14.00,2013-04-13 19:36:00,
2013-04-13 12:41:00,68.2,38.0,23.33,West,274,7.6,11.0,33,0.00,,---,0.00,VWS V14.00,2013-04-13 19:41:00,
2013-04-13 12:47:00,68.4,38.2,23.33,West,267,7.6,10.5,33,0.00,,---,0.00,VWS V14.00,2013-04-13 19:47:00,
2013-04-13 12:52:00,68.4,38.2,23.33,WSW,251,5.8,7.2,33,0.00,,---,0.00,VWS V14.00,2013-04-13 19:52:00,
2013-04-13 12:57:00,68.7,38.5,23.33,WSW,239,6.3,7.6,33,0.00,,---,0.00,VWS V14.00,2013-04-13 19:57:00,
2013-04-13 13:02:00,69.1,38.8,23.30,West,271,5.4,11.0,33,0.00,,---,0.00,VWS V14.00,2013-04-13 20:02:00,
2013-04-13 13:07:00,68.9,38.6,23.30,WSW,255,14.1,14.1,33,0.00,,---,0.00,VWS V14.00,2013-04-13 20:07:00,
2013-04-13 13:13:00,68.5,38.3,23.30,WSW,238,4.0,7.2,33,0.00,,---,0.00,VWS V14.00,2013-04-13 20:13:00,
2013-04-13 13:18:00,68.5,38.3,23.30,NW,315,8.1,13.6,33,0.00,,---,0.00,VWS V14.00,2013-04-13 20:18:00,
2013-04-13 13:23:00,68.5,38.3,23.30,West,267,8.7,8.7,33,0.00,,---,0.00,VWS V14.00,2013-04-13 20:23:00,
2013-04-13 13:28:00,68.2,38.0,23.30,SW,235,8.3,8.3,33,0.00,,---,0.00,VWS V14.00,2013-04-13 20:28:00,
2013-04-13 13:33:00,68.4,38.2,23.30,SE,142,3.1,3.1,33,0.00,,---,0.00,VWS V14.00,2013-04-13 20:33:00,
2013-04-13 13:39:00,68.5,38.3,23.30,WSW,243,15.4,15.4,33,0.00,,---,0.00,VWS V14.00,2013-04-13 20:39:00,
2013-04-13 13:44:00,68.0,37.8,23.30,SW,230,5.8,7.6,33,0.00,,---,0.00,VWS V14.00,2013-04-13 20:44:00,
2013-04-13 13:49:00,67.5,37.4,23.30,SW,231,8.3,8.3,33,0.00,,---,0.00,VWS V14.00,2013-04-13 20:49:00,
2013-04-13 13:54:00,67.6,37.5,23.30,West,279,12.3,12.3,33,0.00,,---,0.00,VWS V14.00,2013-04-13 20:54:00,
2013-04-13 13:59:00,67.5,37.4,23.30,SW,216,5.8,5.8,33,0.00,,---,0.00,VWS V14.00,2013-04-13 20:59:00,
2013-04-13 14:04:00,67.3,37.2,23.30,SSW,206,4.0,12.3,33,0.00,,---,0.00,VWS V14.00,2013-04-13 21:04:00,
2013-04-13 14:09:00,66.9,36.9,23.30,SW,221,7.6,10.1,33,0.00,,---,0.00,VWS V14.00,2013-04-13 21:09:00,
2013-04-13 14:14:00,66.0,36.1,23.30,South,186,5.4,10.5,33,0.00,,---,0.00,VWS V14.00,2013-04-13 21:14:00,
2013-04-13 14:19:00,66.0,36.1,23.30,WSW,249,5.8,12.3,33,0.00,,---,0.00,VWS V14.00,2013-04-13 21:19:00,
2013-04-13 14:24:00,66.2,36.3,23.30,SSW,208,7.6,13.2,33,0.00,,---,0.00,VWS V14.00,2013-04-13 21:24:00,
2013-04-13 14:29:00,66.2,36.3,23.30,WNW,295,11.0,13.2,33,0.00,,---,0.00,VWS V14.00,2013-04-13 21:29:00,
2013-04-13 14:34:00,66.2,36.3,23.30,West,267,7.6,8.3,33,0.00,,---,0.00,VWS V14.00,2013-04-13 21:34:00,
2013-04-13 14:39:00,66.2,36.3,23.30,West,265,6.3,10.5,33,0.00,,---,0.00,VWS V14.00,2013-04-13 21:39:00,
2013-04-13 14:44:00,66.6,36.6,23.30,SW,222,5.8,5.8,33,0.00,,---,0.00,VWS V14.00,2013-04-13 21:44:00,
2013-04-13 14:49:00,67.5,37.4,23.30,SW,216,6.3,10.1,33,0.00,,---,0.00,VWS V14.00,2013-04-13 21:49:00,
2013-04-13 14:55:00,68.4,38.2,23.30,South,173,8.3,8.3,33,0.00,,---,0.00,VWS V14.00,2013-04-13 21:55:00,
2013-04-13 15:00:00,68.5,38.3,23.30,West,279,7.6,14.5,33,0.00,,---,0.00,VWS V14.00,2013-04-13 22:00:00,
2013-04-13 15:05:00,68.9,38.6,23.30,WNW,293,11.0,11.0,33,0.00,,---,0.00,VWS V14.00,2013-04-13 22:05:00,
2013-04-13 15:10:00,68.7,38.5,23.30,WSW,250,8.1,8.1,33,0.00,,---,0.00,VWS V14.00,2013-04-13 22:10:00,
2013-04-13 15:16:00,69.1,38.8,23.27,SW,218,5.4,13.2,33,0.00,,---,0.00,VWS V14.00,2013-04-13 22:16:00,
2013-04-13 15:21:00,69.4,39.1,23.27,West,275,6.3,7.2,33,0.00,,---,0.00,VWS V14.00,2013-04-13 22:21:00,
2013-04-13 15:27:00,69.3,39.0,23.27,SW,229,10.1,10.1,33,0.00,,---,0.00,VWS V14.00,2013-04-13 22:27:00,
2013-04-13 15:32:00,69.1,38.8,23.27,South,176,3.6,9.6,33,0.00,,---,0.00,VWS V14.00,2013-04-13 22:32:00,
2013-04-13 15:37:00,68.9,38.6,23.27,South,190,3.6,6.3,33,0.00,,---,0.00,VWS V14.00,2013-04-13 22:37:00,
2013-04-13 15:42:00,69.3,39.0,23.27,SW,226,4.0,5.8,33,0.00,,---,0.00,VWS V14.00,2013-04-13 22:42:00,
2013-04-13 15:47:00,69.6,39.3,23.27,West,269,8.3,9.6,33,0.00,,---,0.00,VWS V14.00,2013-04-13 22:47:00,
2013-04-13 15:52:00,69.3,39.0,23.27,SSE,166,6.3,9.2,33,0.00,,---,0.00,VWS V14.00,2013-04-13 22:52:00,
2013-04-13 15:57:00,69.1,38.8,23.27,SW,218,11.0,11.0,33,0.00,,---,0.00,VWS V14.00,2013-04-13 22:57:00,
2013-04-13 16:02:00,68.7,38.5,23.27,SW,224,8.3,8.7,33,0.00,,---,0.00,VWS V14.00,2013-04-13 23:02:00,
2013-04-13 16:07:00,68.4,38.2,23.27,WSW,243,8.1,13.2,33,0.00,,---,0.00,VWS V14.00,2013-04-13 23:07:00,
2013-04-13 16:12:00,67.5,37.4,23.27,WSW,249,10.5,10.5,33,0.00,,---,0.00,VWS V14.00,2013-04-13 23:12:00,
2013-04-13 16:17:00,66.7,36.8,23.27,South,185,3.6,10.1,33,0.00,,---,0.00,VWS V14.00,2013-04-13 23:17:00,
2013-04-13 16:23:00,66.7,36.8,23.27,SW,229,8.1,8.1,33,0.00,,---,0.00,VWS V14.00,2013-04-13 23:23:00,
2013-04-13 16:28:00,66.4,36.4,23.27,SW,217,3.6,8.3,33,0.00,,---,0.00,VWS V14.00,2013-04-13 23:28:00,
2013-04-13 16:33:00,65.7,35.8,23.27,SSW,213,4.0,6.7,33,0.00,,---,0.00,VWS V14.00,2013-04-13 23:33:00,
2013-04-13 16:38:00,65.3,35.5,23.27,SSW,197,6.3,10.5,33,0.00,,---,0.00,VWS V14.00,2013-04-13 23:38:00,
2013-04-13 16:43:00,64.9,35.2,23.27,WNW,284,8.7,11.9,33,0.00,,---,0.00,VWS V14.00,2013-04-13 23:43:00,
2013-04-13 16:48:00,65.5,35.6,23.27,West,275,13.6,13.6,33,0.00,,---,0.00,VWS V14.00,2013-04-13 23:48:00,
2013-04-13 16:53:00,65.5,35.6,23.27,SSW,194,5.4,10.1,33,0.00,,---,0.00,VWS V14.00,2013-04-13 23:53:00,
2013-04-13 16:58:00,65.3,35.5,23.27,WSW,253,16.8,16.8,33,0.00,,---,0.00,VWS V14.00,2013-04-13 23:58:00,
2013-04-13 17:03:00,65.3,35.5,23.27,NW,306,12.8,12.8,33,0.00,,---,0.00,VWS V14.00,2013-04-14 00:03:00,
2013-04-13 17:08:00,65.3,35.5,23.27,SW,226,6.3,6.3,33,0.00,,---,0.00,VWS V14.00,2013-04-14 00:08:00,
2013-04-13 17:13:00,64.8,35.0,23.27,SW,231,5.4,8.3,33,0.00,,---,0.00,VWS V14.00,2013-04-14 00:13:00,
2013-04-13 17:18:00,64.6,34.8,23.27,West,260,12.3,12.8,33,0.00,,---,0.00,VWS V14.00,2013-04-14 00:18:00,
2013-04-13 17:23:00,64.4,34.7,23.27,WSW,252,8.3,10.1,33,0.00,,---,0.00,VWS V14.00,2013-04-14 00:23:00,
2013-04-13 17:29:00,63.5,34.7,23.27,SW,219,15.4,15.4,34,0.00,,---,0.00,VWS V14.00,2013-04-14 00:29:00,
2013-04-13 17:34:00,62.4,33.7,23.27,WSW,247,5.8,12.3,34,0.00,,---,0.00,VWS V14.00,2013-04-14 00:34:00,
2013-04-13 17:39:00,61.7,33.1,23.27,NW,316,9.6,9.6,34,0.00,,---,0.00,VWS V14.00,2013-04-14 00:39:00,
2013-04-13 17:44:00,60.8,32.3,23.24,WNW,287,6.3,8.3,34,0.00,,---,0.00,VWS V14.00,2013-04-14 00:44:00,
2013-04-13 17:49:00,60.3,32.5,23.24,SW,235,7.6,7.6,35,0.00,,---,0.00,VWS V14.00,2013-04-14 00:49:00,
2013-04-13 17:54:00,59.7,32.0,23.24,West,259,11.0,14.5,35,0.00,,---,0.00,VWS V14.00,2013-04-14 00:54:00,
2013-04-13 17:59:00,59.4,31.7,23.24,WSW,242,8.1,10.5,35,0.00,,---,0.00,VWS V14.00,2013-04-14 00:59:00,
2013-04-13 18:05:00,59.0,31.4,23.24,WSW,250,8.3,15.0,35,0.00,,---,0.00,VWS V14.00,2013-04-14 01:05:00,
2013-04-13 18:10:00,58.6,31.1,23.24,SW,230,6.3,10.1,35,0.00,,---,0.00,VWS V14.00,2013-04-14 01:10:00,
2013-04-13 18:15:00,58.3,30.8,23.24,SW,231,6.3,6.3,35,0.00,,---,0.00,VWS V14.00,2013-04-14 01:15:00,
2013-04-13 18:20:00,57.9,30.5,23.24,West,265,8.1,8.1,35,0.00,,---,0.00,VWS V14.00,2013-04-14 01:20:00,
2013-04-13 18:26:00,57.6,30.1,23.24,WSW,239,7.6,7.6,35,0.00,,---,0.00,VWS V14.00,2013-04-14 01:26:00,
2013-04-13 18:31:00,57.4,30.0,23.24,WSW,238,8.7,9.6,35,0.00,,---,0.00,VWS V14.00,2013-04-14 01:31:00,
2013-04-13 18:36:00,57.2,29.8,23.24,WSW,239,5.8,5.8,35,0.00,,---,0.00,VWS V14.00,2013-04-14 01:36:00,
2013-04-13 18:42:00,56.8,29.5,23.24,WSW,242,11.0,14.1,35,0.00,,---,0.00,VWS V14.00,2013-04-14 01:42:00,
2013-04-13 18:47:00,56.7,29.3,23.24,West,261,8.3,8.3,35,0.00,,---,0.00,VWS V14.00,2013-04-14 01:47:00,
2013-04-13 18:52:00,56.5,29.2,23.24,South,191,6.3,8.1,35,0.00,,---,0.00,VWS V14.00,2013-04-14 01:52:00,
2013-04-13 18:57:00,56.3,29.0,23.24,West,259,3.6,4.9,35,0.00,,---,0.00,VWS V14.00,2013-04-14 01:57:00,
2013-04-13 19:02:00,55.9,28.7,23.24,WSW,255,8.7,13.2,35,0.00,,---,0.00,VWS V14.00,2013-04-14 02:02:00,
2013-04-13 19:07:00,55.8,28.5,23.24,SW,228,5.8,9.6,35,0.00,,---,0.00,VWS V14.00,2013-04-14 02:07:00,
2013-04-13 19:12:00,55.6,28.4,23.24,West,262,3.6,4.9,35,0.00,,---,0.00,VWS V14.00,2013-04-14 02:12:00,
2013-04-13 19:18:00,55.4,28.2,23.24,WSW,258,7.6,7.6,35,0.00,,---,0.00,VWS V14.00,2013-04-14 02:18:00,
2013-04-13 19:23:00,55.2,28.8,23.24,West,276,5.4,5.4,36,0.00,,---,0.00,VWS V14.00,2013-04-14 02:23:00,
2013-04-13 19:28:00,55.0,28.6,23.24,South,180,3.6,5.8,36,0.00,,---,0.00,VWS V14.00,2013-04-14 02:28:00,
2013-04-13 19:33:00,54.9,28.4,23.24,SSW,192,4.0,6.7,36,0.00,,---,0.00,VWS V14.00,2013-04-14 02:33:00,
2013-04-13 19:38:00,54.7,28.3,23.24,West,271,3.1,4.0,36,0.00,,---,0.00,VWS V14.00,2013-04-14 02:38:00,
2013-04-13 19:43:00,54.5,28.1,23.24,WSW,247,8.7,8.7,36,0.00,,---,0.00,VWS V14.00,2013-04-14 02:43:00,
2013-04-13 19:48:00,54.3,28.0,23.24,SW,220,7.2,7.2,36,0.00,,---,0.00,VWS V14.00,2013-04-14 02:48:00,
2013-04-13 19:53:00,54.1,27.8,23.24,West,266,11.0,11.0,36,0.00,,---,0.00,VWS V14.00,2013-04-14 02:53:00,
2013-04-13 19:58:00,54.0,27.6,23.24,WNW,291,9.2,9.6,36,0.00,,---,0.00,VWS V14.00,2013-04-14 02:58:00,
2013-04-13 20:04:00,53.8,27.5,23.24,NNW,335,6.7,6.7,36,0.00,,---,0.00,VWS V14.00,2013-04-14 03:04:00,
2013-04-13 20:09:00,53.4,27.1,23.24,WSW,253,5.8,5.8,36,0.00,,---,0.00,VWS V14.00,2013-04-14 03:09:00,
2013-04-13 20:14:00,53.2,27.0,23.24,SW,216,3.1,5.8,36,0.00,,---,0.00,VWS V14.00,2013-04-14 03:14:00,
2013-04-13 20:19:00,53.2,27.0,23.24,NW,319,5.4,5.8,36,0.00,,---,0.00,VWS V14.00,2013-04-14 03:19:00,
2013-04-13 20:25:00,53.1,26.8,23.24,NW,309,6.3,6.3,36,0.00,,---,0.00,VWS V14.00,2013-04-14 03:25:00,
2013-04-13 20:30:00,52.9,26.7,23.24,WSW,252,10.5,10.5,36,0.00,,---,0.00,VWS V14.00,2013-04-14 03:30:00,
2013-04-13 20:35:00,52.7,26.5,23.24,WSW,239,5.4,8.1,36,0.00,,---,0.00,VWS V14.00,2013-04-14 03:35:00,
2013-04-13 20:40:00,52.7,26.5,23.24,WSW,256,5.4,8.3,36,0.00,,---,0.00,VWS V14.00,2013-04-14 03:40:00,
2013-04-13 20:45:00,52.7,26.5,23.24,WNW,285,7.6,10.1,36,0.00,,---,0.00,VWS V14.00,2013-04-14 03:45:00,
2013-04-13 20:50:00,52.5,26.4,23.24,SW,222,7.6,8.3,36,0.00,,---,0.00,VWS V14.00,2013-04-14 03:50:00,
2013-04-13 20:55:00,52.3,26.2,23.24,West,265,8.3,11.0,36,0.00,,---,0.00,VWS V14.00,2013-04-14 03:55:00,
2013-04-13 21:00:00,52.3,26.2,23.24,SW,232,3.1,3.1,36,0.00,,---,0.00,VWS V14.00,2013-04-14 04:00:00,
2013-04-13 21:01:00,52.2,26.0,23.24,West,259,10.1,10.1,36,0.00,,---,0.00,VWS V14.00,2013-04-14 04:01:00,
2013-04-13 21:02:00,52.2,26.0,23.24,West,275,8.3,10.1,36,0.00,,---,0.00,VWS V14.00,2013-04-14 04:02:00,
2013-04-13 21:07:00,52.0,25.9,23.24,West,263,4.9,8.3,36,0.00,,---,0.00,VWS V14.00,2013-04-14 04:07:00,
2013-04-13 21:13:00,52.0,25.9,23.24,WSW,254,5.4,5.8,36,0.00,,---,0.00,VWS V14.00,2013-04-14 04:13:00,
2013-04-13 21:18:00,52.0,25.9,23.24,SW,226,10.5,10.5,36,0.00,,---,0.00,VWS V14.00,2013-04-14 04:18:00,
2013-04-13 21:23:00,51.8,25.7,23.24,WSW,242,10.5,10.5,36,0.00,,---,0.00,VWS V14.00,2013-04-14 04:23:00,
2013-04-13 21:28:00,51.6,26.2,23.24,SW,231,3.6,8.7,37,0.00,,---,0.00,VWS V14.00,2013-04-14 04:28:00,
2013-04-13 21:33:00,51.6,26.2,23.24,WNW,298,6.3,10.1,37,0.00,,---,0.00,VWS V14.00,2013-04-14 04:33:00,
2013-04-13 21:38:00,51.4,26.0,23.24,SSE,160,5.8,8.7,37,0.00,,---,0.00,VWS V14.00,2013-04-14 04:38:00,
2013-04-13 21:43:00,51.4,26.0,23.27,SW,227,4.9,11.9,37,0.00,,---,0.00,VWS V14.00,2013-04-14 04:43:00,
2013-04-13 21:48:00,51.3,25.9,23.27,SW,236,5.4,8.1,37,0.00,,---,0.00,VWS V14.00,2013-04-14 04:48:00,
2013-04-13 21:53:00,51.1,25.7,23.27,WSW,251,4.0,9.6,37,0.00,,---,0.00,VWS V14.00,2013-04-14 04:53:00,
2013-04-13 21:58:00,50.9,25.6,23.27,WSW,245,3.1,4.0,37,0.00,,---,0.00,VWS V14.00,2013-04-14 04:58:00,
2013-04-13 22:04:00,50.7,25.4,23.27,WNW,284,3.6,6.3,37,0.00,,---,0.00,VWS V14.00,2013-04-14 05:04:00,
2013-04-13 22:09:00,50.7,25.4,23.27,West,260,5.4,7.6,37,0.00,,---,0.00,VWS V14.00,2013-04-14 05:09:00,
2013-04-13 22:14:00,50.7,25.4,23.27,WNW,300,9.6,9.6,37,0.00,,---,0.00,VWS V14.00,2013-04-14 05:14:00,
2013-04-13 22:19:00,50.5,25.2,23.27,WSW,252,6.3,11.4,37,0.00,,---,0.00,VWS V14.00,2013-04-14 05:19:00,
2013-04-13 22:24:00,50.5,25.2,23.27,SW,217,3.6,8.3,37,0.00,,---,0.00,VWS V14.00,2013-04-14 05:24:00,
2013-04-13 22:30:00,50.5,25.2,23.24,SW,229,5.8,8.1,37,0.00,,---,0.00,VWS V14.00,2013-04-14 05:30:00,
2013-04-13 22:35:00,50.4,25.1,23.24,WSW,245,8.1,12.3,37,0.00,,---,0.00,VWS V14.00,2013-04-14 05:35:00,
2013-04-13 22:40:00,50.4,25.1,23.24,WSW,256,4.0,10.1,37,0.00,,---,0.00,VWS V14.00,2013-04-14 05:40:00,
2013-04-13 22:45:00,50.4,25.1,23.24,SW,214,5.8,8.7,37,0.00,,---,0.00,VWS V14.00,2013-04-14 05:45:00,
2013-04-13 22:50:00,50.2,24.9,23.24,WSW,244,5.8,6.3,37,0.00,,---,0.00,VWS V14.00,2013-04-14 05:50:00,
2013-04-13 22:55:00,50.0,24.8,23.24,WSW,248,5.8,8.3,37,0.00,,---,0.00,VWS V14.00,2013-04-14 05:55:00,
2013-04-13 23:00:00,50.0,24.8,23.24,SW,229,6.3,8.1,37,0.00,,---,0.00,VWS V14.00,2013-04-14 06:00:00,
2013-04-13 23:05:00,50.0,24.8,23.24,WSW,257,5.4,13.2,37,0.00,,---,0.00,VWS V14.00,2013-04-14 06:05:00,
2013-04-13 23:10:00,49.8,24.6,23.24,WSW,256,5.4,11.0,37,0.00,,---,0.00,VWS V14.00,2013-04-14 06:10:00,
2013-04-13 23:16:00,49.8,24.6,23.24,SW,236,3.1,3.6,37,0.00,,---,0.00,VWS V14.00,2013-04-14 06:16:00,
2013-04-13 23:21:00,49.8,24.6,23.24,West,259,8.1,10.1,37,0.00,,---,0.00,VWS V14.00,2013-04-14 06:21:00,
2013-04-13 23:26:00,49.6,24.5,23.24,WSW,239,4.9,8.1,37,0.00,,---,0.00,VWS V14.00,2013-04-14 06:26:00,
2013-04-13 23:31:00,49.5,24.3,23.24,West,278,10.1,10.5,37,0.00,,---,0.00,VWS V14.00,2013-04-14 06:31:00,
2013-04-13 23:37:00,49.3,24.1,23.24,SW,215,2.7,3.6,37,0.00,,---,0.00,VWS V14.00,2013-04-14 06:37:00,
2013-04-13 23:42:00,48.9,23.8,23.24,West,261,5.8,6.3,37,0.00,,---,0.00,VWS V14.00,2013-04-14 06:42:00,
2013-04-13 23:47:00,48.9,23.8,23.24,WNW,293,10.1,10.1,37,0.00,,---,0.00,VWS V14.00,2013-04-14 06:47:00,
2013-04-13 23:53:00,48.9,23.8,23.24,WNW,293,3.6,7.6,37,0.00,,---,0.00,VWS V14.00,2013-04-14 06:53:00,
2013-04-13 23:58:00,48.9,23.8,23.24,WSW,249,7.2,7.2,37,0.00,,---,0.00,VWS V14.00,2013-04-14 06:58:00,